Location: Unspecified
(0.0000°N, 0.0000°E)
Time: 09:51:18
(UTC+00:00)

Vanguard 3 - Pass Details

Date: 07 October 2022
Orbit: 509 x 3255 km, 33.3° (Epoch: 29 November)

Event Time Altitude Azimuth Distance (km) Brightness Sun altitude
Rises 17:41:13 0° 272° (W) 6,044 14.3 1.6°
Reaches altitude 10° 17:45:33 10° 262° (W) 5,378 13.8 0.6°
Maximum altitude 18:00:06 32° 205° (SSW) 4,488 11.3 -3.1°
Drops below altitude 10° 18:16:45 10° 148° (SSE) 6,054 11.3 -7.2°
Sets 18:22:11 0° 139° (SE) 6,860 11.5 -8.6°
